Miscellaneous Local Product
Issued by NWS Hastings, NE

Home | Current Version | Previous Version | Graphics & Text | Print | Product List | Glossary On
Versions: 1 2 3 4 5 6 7 8 9 10 11 12 13 14 15 16 17 18 19 20 21 22 23 24 25 26 27 28 29 30 31 32 33 34 35 36 37 38 39 40 41 42 43 44 45 46 47 48 49 50
000
AXUS43 KGID 220902
MISGRI

GID CWA HOURLY WEATHER ROUNDUP
NATIONAL WEATHER SERVICE HASTINGS NE
400 AM CDT SUN OCT 22 2017

NOTE: "FAIR" INDICATES FEW OR NO CLOUDS BELOW 12,000 FEET WITH NO
SIGNIFICANT WEATHER AND/OR OBSTRUCTIONS TO VISIBILITY.

...SOUTH CENTRAL NEBRASKA...

CITY           SKY/WX    TMP DP  RH WIND       PRES   REMARKS
GRAND ISLAND   CLEAR     37  35  92 SW5       30.06R WCI  33
KEARNEY        CLEAR     36  28  73 W7        30.08R WCI  30
HASTINGS       CLEAR     39  33  79 SW6       30.08R WCI  35
ORD            CLEAR     33  30  88 W3        30.04S
YORK           CLEAR     37  37 100 W8        30.05S WCI  31
AURORA         CLEAR     37  35  90 W6        30.05S WCI  33
LEXINGTON      CLEAR     32  26  80 W7        30.08R WCI  25
HOLDREGE       CLEAR     35  28  75 NW5       30.09R WCI  31
HEBRON         CLEAR     42  38  86 W3        30.08R

...NEBRASKA PANHANDLE...

CITY           SKY/WX    TMP DP  RH WIND       PRES   REMARKS
CHADRON        CLEAR     25  14  63 E3        30.04S
ALLIANCE       CLEAR     25  17  72 W9        30.06S HAZE    WCI  15
SCOTTSBLUFF    CLEAR     42  19  39 W10       30.08R
SIDNEY         CLEAR     26  17  68 NW9       30.12R WCI  17

...WESTERN AND NORTH CENTRAL NEBRASKA...

CITY           SKY/WX    TMP DP  RH WIND       PRES   REMARKS
VALENTINE      CLEAR     31  27  85 CALM      30.04R
AINSWORTH      CLEAR     33  30  86 SW5       30.04R WCI  29
ONEILL         CLEAR     36  32  84 W9        30.03R WCI  29
BROKEN BOW     CLEAR     28  25  88 CALM      30.06R
IMPERIAL       CLEAR     41  21  44 NW13      30.11S
NORTH PLATTE   CLEAR     29  26  89 NW6       30.10R WCI  23
MCCOOK         CLEAR     33  24  69 SW6       30.12R WCI  28

...EASTERN NEBRASKA...

CITY           SKY/WX    TMP DP  RH WIND       PRES   REMARKS
NORFOLK        CLEAR     38  32  79 CALM      30.02R
SO SIOUX CITY  MOCLDY    41  38  89 CALM      30.00R
TEKAMAH        CLOUDY    43  40  89 CALM      30.02R
COLUMBUS       CLEAR     37  35  92 W3        30.04R
ALBION         CLEAR     32  31  96 CALM      30.03R
OMAHA EPPLEY   MOCLDY    48  40  73 NW5       30.01S
OFFUTT AFB     CLOUDY    49  40  73 W7        30.01R
MILLARD        MOCLDY    49  43  81 CALM      30.02S
LINCOLN        CLOUDY    47  40  76 W3        30.04R
NEBRASKA CITY  CLOUDY    49  42  77 W7        30.01S
BEATRICE       PTCLDY    46  42  86 CALM      30.04R
FALLS CITY     CLOUDY    50  43  77 NW9       30.00S

...NORTHERN KANSAS...

CITY           SKY/WX    TMP DP  RH WIND       PRES   REMARKS
GOODLAND       CLEAR     33  20  58 W9        30.14R WCI  25
HILL CITY      CLEAR     36  28  73 W7        30.13R WCI  30
NORTON         SUNNY     34  21  60 SW8       30.11R WCI  27
PHILLIPSBURG   CLEAR     34  28  80 W7        30.11R WCI  28
SMITH CENTER   CLEAR     30  30 100 CALM      30.11R
HAYS           CLEAR     39  32  76 NW3       30.12F
RUSSELL        CLEAR     40  38  93 W8        30.10R WCI  34
CONCORDIA      CLEAR     44  40  85 W8        30.07R
SALINA         CLEAR     47  40  76 W6        30.08R
TOPEKA         MOCLDY    51  51 100 CALM      30.01F



USA.gov is the U.S. government's official web portal to all federal, state and local government web resources and services.